Torna al catalogo

STARLINK-4024

AttivoComunicazioniVLEO
NORAD 52599·PAYLOAD·🇺🇸 United States

Lanciato May 14, 2022 da Cape Canaveral Space Force Station

Loading…

Prossimi Passaggi (prossime 24 ore)

TLE

AggiornatoSource: CelesTrak SupGP

Epoca: Sep 14, 2026, 21:45 UTC

1 52599C 22052B   26257.90673611 -.00052928  00000+0 -17022-2 0  2574
2 52599  53.1562 135.3863 0001298  92.8313  25.9334 15.31724155    10

Traccia STARLINK-4024 in tempo reale con AllMySat

Download on the App Store